NR76G EDDG-EDDG

Flight info

Callsign NR76G
Flight time 0h 16m
Altitude 1000
Route NEW PILOT VFR PATERN 2 STOP AND GO
Aircraft B36T/L-L/C

Departure

Time 2026-04-16 11:45
Airport Münster Osnabrück Airport (EDDG)

Arrival

Time 2026-04-16 12:02
Airport Münster Osnabrück Airport (EDDG)
Time Latitude Longitude Altitude Speed Heading
2026-04-16 11:27 52.13154 7.68319 163 ft 0 kts 270°
2026-04-16 11:41 52.13189 7.68304 163 ft 6 kts 33°
2026-04-16 11:41 52.13210 7.68327 164 ft 10 kts 26°
2026-04-16 11:41 52.13272 7.68416 163 ft 12 kts 68°
2026-04-16 11:41 52.13317 7.68622 164 ft 27 kts 72°
2026-04-16 11:42 52.13380 7.68917 160 ft 34 kts 69°
2026-04-16 11:42 52.13471 7.69345 162 ft 45 kts 71°
2026-04-16 11:42 52.13558 7.69767 161 ft 27 kts 71°
2026-04-16 11:42 52.13627 7.69988 160 ft 13 kts 29°
2026-04-16 11:43 52.13725 7.70017 158 ft 0 kts 334°
2026-04-16 11:43 52.13756 7.69963 160 ft 12 kts 287°
2026-04-16 11:44 52.13754 7.69862 162 ft 7 kts 259°
2026-04-16 11:44 52.13753 7.69858 162 ft 0 kts 252°
2026-04-16 11:44 52.13752 7.69853 162 ft 0 kts 250°
2026-04-16 11:44 52.13737 7.69789 163 ft 26 kts 251°
2026-04-16 11:45 52.13613 7.69211 166 ft 85 kts 250°
2026-04-16 11:45 52.13381 7.68104 371 ft 115 kts 252°
2026-04-16 11:45 52.13139 7.66769 675 ft 125 kts 253°
2026-04-16 11:45 52.12944 7.65540 1075 ft 106 kts 255°
2026-04-16 11:46 52.12738 7.64311 1160 ft 118 kts 254°
2026-04-16 11:46 52.12259 7.63223 1262 ft 128 kts 209°
2026-04-16 11:46 52.11354 7.63096 1285 ft 134 kts 181°
2026-04-16 11:46 52.10444 7.63346 1440 ft 128 kts 172°
2026-04-16 11:47 52.09660 7.63936 1541 ft 129 kts 141°
2026-04-16 11:47 52.09251 7.65264 1545 ft 139 kts 102°
2026-04-16 11:47 52.09390 7.66859 1516 ft 144 kts 76°
2026-04-16 11:47 52.09411 7.66998 1523 ft 143 kts 76°
2026-04-16 11:49 52.09416 7.67032 1524 ft 142 kts 76°
2026-04-16 11:50 52.09684 7.68804 1520 ft 143 kts 75°
2026-04-16 11:50 52.09786 7.69386 1509 ft 143 kts 74°
2026-04-16 11:50 52.10090 7.70939 1501 ft 145 kts 69°
2026-04-16 11:51 52.10511 7.72348 1655 ft 129 kts 60°
2026-04-16 11:51 52.10943 7.73566 1828 ft 121 kts 57°
2026-04-16 11:51 52.11419 7.74743 1813 ft 125 kts 53°
2026-04-16 11:51 52.11901 7.75943 1893 ft 127 kts 52°
2026-04-16 11:52 52.12497 7.77055 1876 ft 137 kts 36°
2026-04-16 11:52 52.13348 7.77629 1888 ft 129 kts
2026-04-16 11:52 52.14216 7.77837 1882 ft 125 kts 354°
2026-04-16 11:52 52.14948 7.77405 1759 ft 110 kts 305°
2026-04-16 11:53 52.15119 7.76250 1592 ft 101 kts 261°
2026-04-16 11:53 52.14907 7.75131 1374 ft 103 kts 247°
2026-04-16 11:53 52.14657 7.74104 1275 ft 99 kts 246°
2026-04-16 11:53 52.14408 7.73010 1018 ft 105 kts 250°
2026-04-16 11:54 52.14256 7.72221 801 ft 111 kts 252°
2026-04-16 11:54 52.14000 7.71024 545 ft 110 kts 247°
2026-04-16 11:54 52.13745 7.69838 238 ft 110 kts 250°
2026-04-16 11:54 52.13515 7.68749 171 ft 89 kts 250°
2026-04-16 11:55 52.13336 7.67889 158 ft 78 kts 250°
2026-04-16 11:55 52.13139 7.66976 224 ft 92 kts 251°
2026-04-16 11:55 52.12945 7.65973 363 ft 96 kts 253°
2026-04-16 11:55 52.12531 7.65117 529 ft 103 kts 206°
2026-04-16 11:56 52.11826 7.64954 785 ft 103 kts 189°
2026-04-16 11:56 52.11115 7.64969 944 ft 111 kts 171°
2026-04-16 11:56 52.10376 7.65481 1037 ft 121 kts 136°
2026-04-16 11:56 52.10103 7.66857 1092 ft 139 kts 88°
2026-04-16 11:57 52.10265 7.68430 1217 ft 142 kts 75°
2026-04-16 11:57 52.10543 7.69908 1347 ft 132 kts 71°
2026-04-16 11:57 52.10857 7.71358 1355 ft 139 kts 72°
2026-04-16 11:57 52.11130 7.72845 1365 ft 134 kts 77°
2026-04-16 11:58 52.11373 7.74328 1346 ft 137 kts 74°
2026-04-16 11:58 52.11620 7.75828 1450 ft 138 kts 74°
2026-04-16 11:58 52.12071 7.77143 1589 ft 132 kts 39°
2026-04-16 11:58 52.12862 7.77896 1562 ft 133 kts 11°
2026-04-16 11:59 52.13738 7.78017 1632 ft 120 kts 338°
2026-04-16 11:59 52.14542 7.77705 1656 ft 119 kts 335°
2026-04-16 11:59 52.15057 7.76922 1653 ft 101 kts 273°
2026-04-16 11:59 52.15011 7.75763 1518 ft 106 kts 258°
2026-04-16 12:00 52.14796 7.74599 1305 ft 109 kts 245°
2026-04-16 12:00 52.14510 7.73452 1102 ft 110 kts 247°
2026-04-16 12:00 52.14241 7.72266 885 ft 114 kts 251°
2026-04-16 12:00 52.14030 7.71209 918 ft 97 kts 253°
2026-04-16 12:01 52.13773 7.69968 378 ft 116 kts 250°
2026-04-16 12:01 52.13534 7.68826 181 ft 97 kts 250°
2026-04-16 12:01 52.13344 7.67931 159 ft 63 kts 251°
2026-04-16 12:02 52.13160 7.67057 158 ft 25 kts 248°
2026-04-16 12:02 52.13089 7.67056 159 ft 12 kts 151°
2026-04-16 12:02 52.13041 7.67139 159 ft 2 kts 121°
2026-04-16 12:02 52.13032 7.67187 159 ft 8 kts 95°
2026-04-16 12:03 52.13053 7.67332 157 ft 23 kts 70°
2026-04-16 12:03 52.13113 7.67640 155 ft 33 kts 73°
2026-04-16 12:03 52.13194 7.68042 161 ft 41 kts 71°
2026-04-16 12:03 52.13178 7.68317 163 ft 24 kts 192°
2026-04-16 12:04 52.13113 7.68244 163 ft 0 kts 272°